Content
SEND FEEDBACK

Daily
Averages
Monthly
Summary
China

CHONGQING, CHINA


Home > Asia > China
Elevation: 1151 feet     Latitude: 29 31N     Longitude: 106 29E

WEATHER
 
SELECT A DAY
Number of Records: 130,324;   Date Range: 1/29/00 - 8/31/14
 
SHARE

PRINT THIS DATA

[ ← Previous Day ]
WEATHER ALMANAC - MARCH 8, 2013
[ Next Day → ]
[ °C ]   °F
Weather ElementAverageHighLow
Temperature68.8 °F83 °F (5:00 pm)54 °F (8:00 am)
Dewpoint44.3 °F51 °F (11:00 pm)41 °F (1:00 am)
Humidity41.3 %63 % (4:00 am)16 % (2:00 pm)
Barometer29.91 in30.04 in (1:00 am)29.75 in (5:00 pm)
Wind Speed5.4 mph13.4 mph (3:00 am)
Weather ElementAverage
Visibility4.3 mi
Wind DirectionSE (137.9 °)

Weather ElementTotal
Precipitation---
Cooling Degree Days3.5 (Base 65)
Growing Degree Days18.5 (Base 50)
Averaged from 30 records on March 8, 2013
WEATHER CONDITIONS BREAKOUT
WIND DIRECTION BREAKOUT
WEATHER BY HOUR - MARCH 8, 2013
[ °C ]   °F
Local TimeTemperatureDewpointHumidityBarometerVisibilityWind DirectionWind SpeedGust SpeedPrecipitationEventsConditions
1:00 AM59.0 °F41.0 °F51 %30.04 inNorth (360°)11.2 mphClear
2:00 AM58.0 °F44.0 °F48 %30.02 in4.0 miWNW (290°)2.2 mphHaze
2:00 AM59.0 °F42.8 °F55 %30.04 inNorth (350°)11.2 mphClear
3:00 AM59.0 °F44.6 °F59 %30.01 inNorth (360°)13.4 mphClear
4:00 AM57.2 °F44.6 °F63 %30.01 inNorth (10°)8.9 mphClear
5:00 AM57.2 °F42.8 °F59 %30.01 inNNE (20°)6.7 mphClear
6:00 AM57.2 °F44.6 °F63 %30.01 inNorth (10°)6.7 mphClear
7:00 AM57.2 °F44.6 °F63 %30.01 in4.3 miNNE (30°)6.7 mph
8:00 AM54.0 °F45.0 °F62 %30.01 inWest (270°)2.2 mphHaze
8:00 AM59.0 °F44.6 °F59 %30.01 in5.0 miNNE (20°)4.5 mph
9:00 AM64.4 °F44.6 °F49 %30.04 in5.0 miNE (40°)4.5 mph
10:00 AM68.0 °F46.4 °F46 %30.04 in5.0 miEast (90°)4.5 mph
11:00 AM70.0 °F46.0 °F30 %30.00 in4.0 miSE (140°)4.5 mphHaze
11:00 AM71.6 °F44.6 °F38 %30.01 inVariable2.2 mphClear
12:00 PM75.2 °F41.0 °F29 %30.01 inESE (110°)4.5 mphClear
1:00 PM77.0 °F41.0 °F28 %29.95 inVariable2.2 mphClear
2:00 PM78.0 °F41.0 °F16 %29.88 in5.0 miSE (140°)2.2 mphHaze
2:00 PM80.6 °F41.0 °F24 %29.92 inVariable2.2 mphClear
3:00 PM82.4 °F46.4 °F28 %29.86 inVariable4.5 mphClear
4:00 PM82.4 °F42.8 °F25 %29.83 inVariable4.5 mphClear
5:00 PM83.0 °F45.0 °F16 %29.75 in5.0 miNW (320°)2.2 mphHaze
5:00 PM82.4 °F44.6 °F26 %29.80 inNorth (10°)4.5 mphClear
6:00 PM78.8 °F44.6 °F30 %29.77 inENE (70°)8.9 mphClear
7:00 PM75.2 °F44.6 °F34 %29.77 inENE (60°)4.5 mphClear
8:00 PM72.0 °F47.0 °F30 %29.75 in3.0 miCalmHaze
8:00 PM71.6 °F44.6 °F38 %29.77 inNorth (350°)8.9 mphClear
9:00 PM71.6 °F44.6 °F38 %29.77 inNNW (330°)8.9 mphClear
10:00 PM69.8 °F44.6 °F40 %29.77 inNorth (10°)8.9 mphClear
11:00 PM66.0 °F51.0 °F48 %29.75 in3.0 miWSW (250°)2.2 mphHaze
11:00 PM68.0 °F44.6 °F43 %29.77 inNorth (360°)4.5 mphClear
Hourly data recorded from ZUCK, located miles away from Chongqing, China







STORIES FROM OUR PARTNERS